Change the Weather History Date:

Friday, December 7, 2012

  Actual Average Record
Temperature  
Mean Temperature 34 °F 32 °F  
Max Temperature 41 °F 39 °F 72 °F (1998)
Min Temperature 27 °F 26 °F 5 °F (1906)
Degree Days  
Heating Degree Days 31 33  
Month to date heating degree days 188 220  
Since 1 July heating degree days 1453 1622  
Cooling Degree Days 0 0  
Month to date cooling degree days 0 0  
Year to date cooling degree days 674 471  
Moisture  
Dew Point 31 °F    
Average Humidity 79    
Maximum Humidity 100    
Minimum Humidity 57    
Precipitation  
Precipitation 0.04 in 0.13 in 1.68 in (1976)
Month to date precipitation 0.26 0.94  
Year to date precipitation 39.03 45.19  
Snow  
Snow 0.00 in 0.40 in 16.30 in (1996)
Month to date snowfall 0.8 2.4  
Since 1 July snowfall 8.6 5.2  
Snow Depth 0.00 in    
Sea Level Pressure  
Sea Level Pressure 30.08 in    
Wind  
Wind Speed 11 mph (SW)    
Max Wind Speed 20 mph    
Max Gust Speed 24 mph    
Visibility 10 miles    
Events Rain    
T = Trace of Precipitation, MM = Missing Value Source: NWS Daily Summary

Daily Weather History Graph

Daily Weather History Graph

Search for Another Location

Airport or City:

Trip Planner

Search our weather history database for the weather conditions in past years. The results will help you decide how hot, cold, wet, or windy it might be!

Date:

Astronomy

Dec. 07, 2012 Rise Set
Actual Time 7:03 AM EST 4:15 PM EST
Civil Twilight 6:31 AM EST 4:46 PM EST
Nautical Twilight 5:56 AM EST 5:21 PM EST
Astronomical Twilight 5:22 AM EST 5:55 PM EST
Moon 12:12 AM EST (12/7) 12:16 PM EST (12/7)
Length of Visible Light 10h 15m
Length of Day
9h 11m
Last Quarter, 39% of the Moon is Illuminated
Dec 7
Last Quarter
Dec 13
New
Dec 20
First Quarter
Dec 28
Full
Jan 4
Last Quarter

Hourly Weather History & Observations

Time (EST) Temp. Windchill Dew Point Humidity Pressure Visibility Wind Dir Wind Speed Gust Speed Precip Events Conditions
12:54 AM 28.9 °F 22.8 °F 15.1 °F 56% - 10.0 mi SW 5.8 mph - N/A   Clear
1:54 AM 27.0 °F 18.7 °F 16.0 °F 63% - 10.0 mi SW 8.1 mph - N/A   Clear
2:54 AM 27.0 °F 17.3 °F 18.0 °F 69% - 10.0 mi SW 10.4 mph - N/A   Clear
3:54 AM 28.0 °F 18.6 °F 21.0 °F 75% - 10.0 mi SW 10.4 mph - N/A   Clear
4:54 AM 28.9 °F 21.1 °F 21.9 °F 75% - 10.0 mi SW 8.1 mph - N/A   Clear
5:54 AM 28.9 °F 21.1 °F 23.0 °F 78% - 10.0 mi WSW 8.1 mph - N/A   Clear
6:54 AM 30.0 °F 20.5 °F 25.0 °F 82% - 10.0 mi SW 11.5 mph - N/A   Partly Cloudy
7:09 AM 30.0 °F 21.7 °F 25.0 °F 82% - 10.0 mi SSW 9.2 mph - N/A   Mostly Cloudy
7:17 AM 30.0 °F 21.1 °F 25.0 °F 82% - 10.0 mi SSW 10.4 mph - N/A   Scattered Clouds
7:24 AM 30.0 °F 21.7 °F 25.0 °F 82% - 10.0 mi SW 9.2 mph - N/A   Mostly Cloudy
7:31 AM 30.9 °F 22.8 °F 25.0 °F 79% - 10.0 mi SSW 9.2 mph - N/A   Partly Cloudy
7:54 AM 30.9 °F 21.7 °F 26.1 °F 82% - 10.0 mi SW 11.5 mph - N/A   Clear
8:33 AM 32.0 °F 22.5 °F 27.0 °F 82% - 10.0 mi SW 12.7 mph - N/A   Mostly Cloudy
8:54 AM 33.1 °F 23.4 °F 27.0 °F 78% - 10.0 mi SW 13.8 mph - N/A   Overcast
9:54 AM 34.0 °F 26.0 °F 28.0 °F 79% 30.21 in 10.0 mi SSW 10.4 mph - N/A   Overcast
10:46 AM 37.0 °F 28.1 °F 28.9 °F 73% 30.15 in 10.0 mi SSW 15.0 mph - N/A   Scattered Clouds
10:54 AM 37.0 °F 29.3 °F 28.9 °F 73% 30.18 in 10.0 mi SW 11.5 mph - N/A   Partly Cloudy
11:54 AM 39.0 °F 32.3 °F 30.0 °F 70% 30.16 in 10.0 mi SW 10.4 mph - N/A   Clear
12:54 PM 39.9 °F 31.4 °F 30.0 °F 68% 30.13 in 10.0 mi SW 16.1 mph 24.2 mph N/A   Overcast
1:54 PM 41.0 °F 33.5 °F 32.0 °F 70% 30.12 in 10.0 mi SW 13.8 mph - N/A   Overcast
2:50 PM 39.2 °F 32.5 °F 33.8 °F 81% 30.07 in 10.0 mi SW 10.4 mph - 0.00 in Rain Light Rain
2:54 PM 39.9 °F 33.4 °F 34.0 °F 79% 30.11 in 10.0 mi SW 10.4 mph - 0.00 in Rain Light Rain
3:32 PM 39.0 °F 32.8 °F 36.0 °F 89% 30.07 in 10.0 mi SW 9.2 mph - 0.01 in Rain Light Rain
3:39 PM 39.0 °F 32.3 °F 36.0 °F 89% 30.07 in 10.0 mi SW 10.4 mph - 0.01 in Rain Light Rain
3:54 PM 39.0 °F 32.8 °F 36.0 °F 89% 30.10 in 10.0 mi SW 9.2 mph - 0.01 in Rain Light Rain
4:42 PM 37.9 °F 32.1 °F 36.0 °F 93% 30.05 in 10.0 mi SSW 8.1 mph - 0.01 in Rain Light Rain
4:54 PM 37.9 °F 32.1 °F 36.0 °F 93% 30.09 in 10.0 mi SSW 8.1 mph - 0.01 in Rain Light Rain
5:37 PM 37.9 °F 30.9 °F 36.0 °F 93% 30.05 in 10.0 mi SSW 10.4 mph - 0.00 in Rain Light Rain
5:54 PM 37.9 °F 30.9 °F 37.0 °F 97% 30.08 in 8.0 mi SSW 10.4 mph - 0.01 in Rain Light Rain
6:49 PM 39.2 °F 32.0 °F 37.4 °F 93% 30.04 in 8.0 mi SW 11.5 mph - 0.00 in Rain Light Rain
6:50 PM 39.0 °F 32.3 °F 37.0 °F 93% 30.08 in 8.0 mi SW 10.4 mph - 0.00 in Rain Light Rain
7:54 PM 39.2 °F 32.0 °F 37.4 °F 93% 30.04 in 9.0 mi SW 11.5 mph - N/A Rain Light Rain
8:19 PM 39.0 °F 32.3 °F 37.9 °F 96% 30.04 in 8.0 mi SW 10.4 mph - 0.01 in Rain Light Rain
8:54 PM 39.9 °F 32.5 °F 37.9 °F 93% 30.07 in 10.0 mi SW 12.7 mph - 0.01 in Rain Light Rain
9:06 PM 39.9 °F 32.9 °F 37.9 °F 93% 30.03 in 10.0 mi SW 11.5 mph - 0.00 in Rain Light Rain
9:28 PM 39.9 °F 33.4 °F 39.0 °F 97% 30.03 in 10.0 mi WSW 10.4 mph - 0.00 in   Overcast
9:54 PM 39.9 °F 33.4 °F 39.0 °F 97% 30.05 in 10.0 mi WSW 10.4 mph - 0.00 in Rain Light Rain
10:54 PM 39.9 °F 32.9 °F 39.0 °F 97% 30.04 in 10.0 mi WSW 11.5 mph - 0.00 in   Overcast
11:54 PM 41.0 °F 34.7 °F 39.0 °F 93% 30.03 in 7.0 mi SW 10.4 mph - 0.00 in   Overcast